TimeEDT,TemperatureF,Dew PointF,Humidity,Sea Level PressureIn,VisibilityMPH,Wind Direction,Wind SpeedMPH,Gust SpeedMPH,PrecipitationIn,Events,Conditions,WindDirDegrees,DateUTC
12:15 AM,29.7,23.9,79,29.99,7.0,WSW,6.9,-,N/A,Snow,Light Snow,240,2013-03-26 04:15:00
12:35 AM,29.8,23.4,77,29.99,7.0,WSW,6.9,-,N/A,Snow,Light Snow,240,2013-03-26 04:35:00
12:55 AM,29.8,23.4,77,29.99,7.0,WSW,6.9,-,N/A,Snow,Light Snow,250,2013-03-26 04:55:00
1:15 AM,29.8,23.7,78,29.99,7.0,WSW,6.9,-,N/A,Snow,Light Snow,250,2013-03-26 05:15:00
1:35 AM,29.3,24.1,81,29.99,5.0,SW,3.5,-,N/A,Snow,Light Snow,230,2013-03-26 05:35:00
1:55 AM,29.3,24.1,81,29.99,5.0,SW,5.8,-,N/A,Snow,Light Snow,230,2013-03-26 05:55:00
2:15 AM,28.9,24.8,84,29.99,4.0,WSW,3.5,-,N/A,Snow,Light Snow,240,2013-03-26 06:15:00
2:35 AM,28.9,24.6,84,29.99,5.0,Calm,Calm,-,N/A,Snow,Light Snow,0,2013-03-26 06:35:00
2:55 AM,29.3,24.3,81,29.99,10.0,WSW,3.5,-,N/A,,Overcast,240,2013-03-26 06:55:00
3:15 AM,29.3,25.2,85,29.99,7.0,SW,5.8,-,N/A,Snow,Light Snow,230,2013-03-26 07:15:00
3:35 AM,28.9,25.9,88,29.99,4.0,WSW,4.6,-,N/A,Snow,Light Snow,250,2013-03-26 07:35:00
3:55 AM,28.4,26.2,92,29.99,5.0,Calm,Calm,-,N/A,Snow,Light Snow,0,2013-03-26 07:55:00
4:15 AM,28.4,26.2,92,29.99,5.0,Calm,Calm,-,N/A,Snow,Light Snow,0,2013-03-26 08:15:00
4:35 AM,28.2,26.1,92,29.98,7.0,Calm,Calm,-,N/A,Snow,Light Snow,0,2013-03-26 08:35:00
4:55 AM,28.2,25.7,90,29.98,10.0,Calm,Calm,-,N/A,Snow,Light Snow,0,2013-03-26 08:55:00
5:15 AM,27.7,26.1,94,29.97,10.0,Calm,Calm,-,N/A,Snow,Light Snow,0,2013-03-26 09:15:00
5:35 AM,27.7,25.9,93,29.97,7.0,Calm,Calm,-,N/A,Snow,Light Snow,0,2013-03-26 09:35:00
5:55 AM,27.5,25.7,93,29.97,7.0,Calm,Calm,-,N/A,Snow,Light Snow,0,2013-03-26 09:55:00
6:15 AM,27.5,26.2,95,29.97,7.0,Calm,Calm,-,N/A,Snow,Light Snow,0,2013-03-26 10:15:00
6:35 AM,27.9,26.2,94,29.98,4.0,Calm,Calm,-,N/A,Snow,Light Snow,0,2013-03-26 10:35:00
6:55 AM,28.0,26.4,94,29.98,3.0,Calm,Calm,-,N/A,Snow,Light Snow,0,2013-03-26 10:55:00
7:15 AM,28.2,26.1,92,29.99,5.0,West,3.5,-,N/A,Snow,Light Snow,280,2013-03-26 11:15:00
7:35 AM,28.4,26.2,92,30.00,10.0,Calm,Calm,-,N/A,,Overcast,0,2013-03-26 11:35:00
7:55 AM,28.4,26.6,93,30.00,5.0,WSW,4.6,-,N/A,Snow,Light Snow,250,2013-03-26 11:55:00
8:15 AM,28.9,26.6,91,30.01,7.0,West,4.6,-,N/A,Snow,Light Snow,270,2013-03-26 12:15:00
8:35 AM,29.1,26.2,89,30.02,10.0,WSW,3.5,-,N/A,Snow,Light Snow,240,2013-03-26 12:35:00
8:55 AM,29.7,26.4,88,30.03,4.0,West,3.5,-,N/A,Snow,Light Snow,280,2013-03-26 12:55:00
9:15 AM,30.0,26.2,86,30.04,2.0,Calm,Calm,-,N/A,Snow,Light Snow,0,2013-03-26 13:15:00
9:35 AM,30.6,26.1,83,30.05,4.0,WSW,3.5,-,N/A,Snow,Light Snow,250,2013-03-26 13:35:00
9:55 AM,30.6,25.9,83,30.06,3.0,Calm,Calm,-,N/A,Snow,Light Snow,0,2013-03-26 13:55:00
10:15 AM,30.7,26.2,83,30.06,2.5,Calm,Calm,-,N/A,Snow,Light Snow,0,2013-03-26 14:15:00
10:35 AM,32.0,26.6,80,30.07,2.5,Calm,Calm,-,N/A,Snow,Light Snow,0,2013-03-26 14:35:00
10:55 AM,34.3,25.9,71,30.07,10.0,NNE,8.1,-,N/A,,Overcast,30,2013-03-26 14:55:00
11:15 AM,34.0,24.3,68,30.08,10.0,NNE,4.6,-,N/A,,Overcast,20,2013-03-26 15:15:00
11:35 AM,35.6,25.9,68,30.09,10.0,NE,5.8,-,N/A,,Overcast,40,2013-03-26 15:35:00
11:55 AM,35.1,23.7,63,30.09,10.0,ENE,4.6,-,N/A,,Overcast,70,2013-03-26 15:55:00
12:15 PM,33.4,26.1,74,30.10,2.5,NNE,5.8,-,N/A,Snow,Light Snow,20,2013-03-26 16:15:00
12:35 PM,33.1,27.9,81,30.11,2.5,WSW,5.8,-,N/A,Snow,Light Snow,250,2013-03-26 16:35:00
12:55 PM,34.2,27.7,77,30.11,10.0,ESE,5.8,-,N/A,,Overcast,120,2013-03-26 16:55:00
1:15 PM,34.7,26.1,71,30.11,10.0,SW,3.5,-,N/A,,Overcast,230,2013-03-26 17:15:00
1:35 PM,35.8,26.6,69,30.11,10.0,SSW,3.5,-,N/A,,Overcast,200,2013-03-26 17:35:00
1:55 PM,36.1,24.1,62,30.11,10.0,WNW,8.1,-,N/A,,Overcast,290,2013-03-26 17:55:00
2:15 PM,35.8,26.1,68,30.11,10.0,West,13.8,18.4,N/A,,Overcast,270,2013-03-26 18:15:00
2:35 PM,36.5,24.8,63,30.11,10.0,WNW,5.8,-,N/A,,Overcast,290,2013-03-26 18:35:00
2:55 PM,36.7,23.5,59,30.12,10.0,NNW,6.9,-,N/A,,Overcast,330,2013-03-26 18:55:00
3:15 PM,35.6,23.2,61,30.11,10.0,WNW,6.9,-,N/A,,Overcast,290,2013-03-26 19:15:00
3:35 PM,36.7,26.4,66,30.11,10.0,SW,6.9,-,N/A,,Overcast,230,2013-03-26 19:35:00
3:55 PM,37.0,26.8,66,30.11,10.0,SW,3.5,-,N/A,,Overcast,230,2013-03-26 19:55:00
4:15 PM,36.7,22.5,56,30.12,10.0,NNW,8.1,-,N/A,,Overcast,340,2013-03-26 20:15:00
4:35 PM,38.1,26.2,62,30.12,10.0,WSW,10.4,16.1,N/A,,Overcast,250,2013-03-26 20:35:00
4:55 PM,36.1,24.1,62,30.13,10.0,West,10.4,-,N/A,,Overcast,270,2013-03-26 20:55:00
5:15 PM,35.6,25.7,67,30.13,10.0,West,11.5,-,N/A,,Overcast,260,2013-03-26 21:15:00
5:35 PM,35.2,25.5,68,30.13,10.0,WSW,8.1,-,N/A,,Overcast,250,2013-03-26 21:35:00
5:55 PM,34.9,25.9,70,30.13,10.0,West,6.9,-,N/A,,Overcast,260,2013-03-26 21:55:00
6:15 PM,34.9,24.8,67,30.14,10.0,NNW,3.5,-,N/A,,Overcast,330,2013-03-26 22:15:00
6:35 PM,34.3,26.1,72,30.15,10.0,NE,3.5,-,N/A,,Overcast,50,2013-03-26 22:35:00
6:55 PM,34.3,25.2,69,30.16,10.0,West,3.5,-,N/A,,Overcast,260,2013-03-26 22:55:00
7:15 PM,34.2,25.7,71,30.17,10.0,Calm,Calm,-,N/A,,Overcast,0,2013-03-26 23:15:00
7:35 PM,34.2,22.6,63,30.17,10.0,West,3.5,-,N/A,,Overcast,270,2013-03-26 23:35:00
7:55 PM,33.8,24.3,68,30.18,10.0,NNW,3.5,-,N/A,,Overcast,340,2013-03-26 23:55:00
8:15 PM,33.8,21.0,60,30.19,10.0,North,5.8,16.1,N/A,,Mostly Cloudy,360,2013-03-27 00:15:00
8:35 PM,33.8,20.7,59,30.19,10.0,Calm,Calm,-,N/A,,Overcast,0,2013-03-27 00:35:00
8:55 PM,32.9,22.3,65,30.20,10.0,Calm,Calm,-,N/A,,Overcast,0,2013-03-27 00:55:00
9:15 PM,31.8,24.4,74,30.20,10.0,Calm,Calm,-,N/A,,Overcast,0,2013-03-27 01:15:00
9:35 PM,32.0,24.4,74,30.20,10.0,Calm,Calm,-,N/A,,Overcast,0,2013-03-27 01:35:00
9:55 PM,32.0,25.7,78,30.21,10.0,Calm,Calm,-,N/A,,Overcast,0,2013-03-27 01:55:00
10:15 PM,32.0,25.7,78,30.22,10.0,Calm,Calm,-,N/A,,Overcast,0,2013-03-27 02:15:00
10:35 PM,32.0,25.0,75,30.23,10.0,Calm,Calm,-,N/A,,Overcast,0,2013-03-27 02:35:00
10:55 PM,32.4,22.8,68,30.23,10.0,Calm,Calm,-,N/A,,Overcast,0,2013-03-27 02:55:00
11:15 PM,33.1,22.3,65,30.23,10.0,North,4.6,-,N/A,,Overcast,350,2013-03-27 03:15:00
11:35 PM,33.3,22.3,64,30.23,10.0,NE,6.9,-,N/A,,Overcast,50,2013-03-27 03:35:00
11:55 PM,33.8,22.1,62,30.23,10.0,Calm,Calm,-,N/A,,Overcast,0,2013-03-27 03:55:00